www.pogodaiklimat.ru

Погода и климат >> Архив погоды >> Гана >> Тема


ПОГОДА в Тема

  • Прогноз погоды в Тема
  • Монитор погоды в Тема

АРХИВ ПОГОДЫ в Тема

Время (UTC), дата Ветер
(напр.,м/с)
 
Видим.   Явления Облачность Т
(С)
Тd
(С)
f
(%)
Тe
(С)
Тes
(С)
Комфортность P
(гПа)
Po
(гПа)
Тmin
(С)
Tmax
(С)
R
(мм)
R24
(мм)
S
(см)
03 16.04 СЗ 1 10 км 8/8 300 м
[Cb calv]
+28.0 +26.0 89 +42 +42 опасность
перегрева
1009.7 1007.6
09 16.04 ЮВ 2 14 км 4/4 480 м
[Cu med, cong]
+29.7 +25.9 80 +44 +52 опасность
перегрева
1012.0 1009.9
12 16.04 Ю 3 14 км 3/3 500 м
[Cu med, cong]
+30.8 +25.6 74 +45 +59 опасность
перегрева
1010.4 1008.4
15 16.04 ЮВ 3 16 км 4/4 500 м
[Cu med, cong]
+31.0 +25.1 71 +45 +51 опасность
перегрева
1008.6 1006.6
21 16.04 ЮВ 2 10 км 5/3 360 м
[Sc Ci sp]
+29.3 +25.5 80 +43 +43 опасность
перегрева
1011.1 1009.0
03 17.04 штиль 0 10 км 8/0
[Cs]
+27.6 +25.4 88 +40 +40 очень
душно
1008.3 1006.2
06 17.04 З 2 14 км 8/3 450 м
[Cu med, cong Cs]
+27.5 +25.5 89 +40 +40 очень
душно
1008.6 1006.5 +27.4
12 17.04 Ю 8 14 км 5/3 500 м
[Cu med, cong Ci sp]
+31.5 +26.1 73 +47 +49 опасность
перегрева
1010.0 1008.0
15 17.04 ЮЗ 6 14 км 3/1 500 м
[Cu med, cong Ci sp]
+31.3 +26.3 75 +47 +52 опасность
перегрева
1007.6 1005.6
21 17.04 ЮЗ 3 10 км 8/3 360 м
[Sc Cs]
+29.1 +25.5 81 +43 +43 опасность
перегрева
1010.1 1008.0
03 18.04 З 3 10 км ясно +26.0 +25.9 99 +38 +38 очень
душно
1007.9 1005.8
06 18.04 З 2 10 км 8/0
[Ac trans Cs]
+27.7 +25.3 87 +40 +40 очень
душно
1008.1 1006.0 +27.7
09 18.04 ЮЗ 3 16 км 4/4 450 м
[Cu med, cong]
+31.0 +25.6 73 +46 +51 опасность
перегрева
1009.8 1007.8
12 18.04 ЮЗ 5 12 км 8/4 500 м
[Cu med, cong Cs]
+31.5 +25.8 72 +47 +53 опасность
перегрева
1009.5 1007.5
21 18.04 ЮЗ 3 12 км 1/1 330 м
[Sc]
+29.1 +27.0 88 +46 +46 опасность
перегрева
1009.6 1007.5
03 19.04 З 3 12 км 5/3 330 м
[Sc Ci sp]
+28.5 +26.7 90 +44 +44 опасность
перегрева
1008.0 1005.9
09 19.04 ЮЗ 3 14 км 9/4 360 м
[Cu Sc Cs]
+30.4 +25.5 75 +45 +49 опасность
перегрева
1010.8 1008.8
12 19.04 ЮЗ 5 18 км 9/4 480 м
[Cu med, cong Cs]
+31.0 +22.7 61 +41 +47 опасность
перегрева
1010.5 1008.5
15 19.04 ЮЗ 5 18 км 9/3 480 м
[Cu med, cong Cs]
+30.7 +26.2 77 +46 +50 опасность
перегрева
1008.7 1006.7
21 19.04 ЮЗ 3 11 км 9/3 330 м
[Cb calv Cs]
+29.0 +26.4 86 +44 +44 опасность
перегрева
1010.7 1008.6
03 20.04 ЮЗ 2 10 км 8/5 300 м
[Sc Cs]
+28.0 +26.0 89 +42 +42 опасность
перегрева
1009.4 1007.3
06 20.04 З 2 14 км 8/3 360 м
[Sc Cs]
+27.4 +26.0 92 +41 +41 опасность
перегрева
1009.8 1007.7 +27.4
12 20.04 Ю 5 14 км 3/3 500 м
[Cu med, cong]
+31.2 +26.2 75 +47 +55 опасность
перегрева
1010.3 1008.3
15 20.04 Ю 5 16 км 1/1 540 м
[Cu med, cong]
+30.7 +26.2 77 +46 +52 опасность
перегрева
1008.5 1006.5
21 20.04 ЮЗ 3 12 км 9/0
[Cs]
+29.2 +26.6 86 +45 +45 опасность
перегрева
1011.3 1009.2
09 21.04 ЮЗ 3 14 км 9/1 480 м
[Cu med, cong Cs]
+29.6 +25.4 78 +43 +50 опасность
перегрева
1009.5 1007.5
12 21.04 ЮЗ 4 14 км 8/3 500 м
[Cu med, cong Ac trans Cs]
+31.8 +24.7 66 +45 +51 опасность
перегрева
1009.1 1007.1
15 21.04 ЮЗ 5 14 км 9/3 360 м
[Cu Sc Ac trans Cs]
+31.0 +26.3 76 +47 +50 опасность
перегрева
1007.3 1005.3
21 21.04 ЮЗ 2 10 км 5/0
[Ci sp]
+29.2 +26.8 87 +46 +46 опасность
перегрева
1008.9 1006.8
00 22.04 З 2 10 км 3/0
[Ci sp]
+29.7 +26.7 84 +46 +46 опасность
перегрева
1009.6 1007.6
03 22.04 З 1 10 км 1/0
[Ci sp]
+28.4 +26.2 88 +43 +43 опасность
перегрева
1007.8 1005.7
06 22.04 З 3 10 км 8/1 450 м
[Cu med, cong Cs]
+27.8 +26.2 91 +42 +42 опасность
перегрева
1008.8 1006.7 +27.8
09 22.04 ЮЗ 3 16 км 6/5 480 м
[Cu med, cong Ci sp]
+31.0 +25.6 73 +46 +50 опасность
перегрева
1010.7 1008.7
12 22.04 ЮЗ 5 18 км 3/3 500 м
[Cu med, cong]
+31.7 +26.7 75 +49 +58 опасность
перегрева
1010.0 1008.0
15 22.04 ЮЗ 4 18 км 8/1 500 м
[Cu med, cong Cs]
+31.0 +26.3 76 +47 +53 опасность
перегрева
1007.1 1005.1
21 22.04 З 3 12 км 9/3 330 м
[Sc Cs]
+29.4 +26.6 85 +45 +45 опасность
перегрева
1008.7 1006.7
00 23.04 ЮЗ 3 12 км 9/3 330 м
[Sc Ac trans Cs]
+29.0 +26.6 87 +45 +45 опасность
перегрева
1009.0 1006.9

 

Местоположение метеостанции Тема (Гана): широта 5.62 долгота 0.00 высота над уровнем моря 18 м.

В архиве по умолчанию представлена погода в Тема за последнюю неделю. Архивные данные за месяц целиком и за предыдущие месяцы, начиная с января 2011 года, Вы можете получить, выбрав интересующий диапазон дат из раскрывающегося списка и нажав кнопку "Ввод!".


*Определитесь, кто Вы:
робот инопланетянин человек

Внимание! Время в таблицах - всемирное. Для получения местного времени необходимо прибавить поправку, которая равна 1 ч.

Смотрите также архив погоды в соседних городах и на ближайших метеорологических станциях:

Погода в Аккра (Гана) (19 км)
Погода в Акюсе (Гана) (55 км)
Погода в Кофоридуа (Гана) (58 км)
Погода в Ада (Гана) (72 км)
Погода в Акатзи (Гана) (105 км)
Погода в Аким Ода (Гана) (114 км)
Погода в Хо (Гана) (121 км)
Погода в Солтпонде (Гана) (127 км)
Погода в Абетифи (Гана) (143 км)
Погода в Ломе (Того) (151 км)

Пояснения к столбцам:

Ветер - указаны скорость ветра в м/с - средняя за 10 мин, порывы в срок и между сроками (в фигурных скобках) и направление, откуда дует ветер: С - северный, СВ - северо-восточный, В - восточный, ЮВ - юго-восточный, Ю - южный, ЮЗ - юго-западный, З - западный, СЗ - северо-западный.
Видимость - горизонтальная дальность видимости в метрах или километрах. При видимости от 1 до 10 км при отсутствии осадков обычно наблюдается дымка, при ухудшении видимости до 1 км и менее - туман. В сухую погоду видимость может ухудшаться дымом, пылью или мглою.
Явления - указаны атмосферные явления, наблюдавшиеся в срок или в последний час перед сроком; фигурными скобками обозначены явления, наблюдавшиеся между сроками (за 1-3 часа до срока); квадратными скобками обозначены град или гололедные отложения с указанием их диаметра в мм.
Облачность - указаны через наклонную черту общая и нижняя облачность в баллах и высота нижней границы облаков в метрах; квадратными скобками обозначены формы облаков: Ci - перистые, Cs - перисто-слоистые, Cc - перисто-кучевые, Ac - высококучевые, As - высокослоистые, Sc - слоисто-кучевые, Ns - слоисто-дождевые, Cu - кучевые, Cb - кучево-дождевые. Подробнее классификацию облаков см. в Атласе облаков (PDF).
T - Температура воздуха - температура, измеренная на высоте 2 м над землей.
Td - Температура точки росы - температура, при понижении до которой содержащийся в воздухе водяной пар достигнет насыщения.
f - Относительная влажность воздуха - влажноcть воздуха, измеренная на высоте 2 м над землей.
Te - Эффективная температура - температура, которую ощущает одетый по сезону человек в тени. Характеристика душности погоды. При расчете учитывается влияние влажности воздуха и скорости ветра на теплоощущения человека.
Tes - Эффективная температура на солнце - температура, которую ощущает человек, с поправкой на солнечный нагрев. Характеристика знойности погоды. Зависит от высоты солнца над горизонтом, облачности и скорости ветра. Ночью, в пасмурную погоду, а также при ветре 12 м/с и более поправка равна нулю.
P - Атмосферное давление - приведенное к уровню моря атмосферное давление.
Po - Атмосферное давление - измеренное на уровне метеостанции атмосферное давление.
Tmin - Минимальная температура - минимум температуры воздуха на высоте 2 м над землей.
Tmax - Максимальная температура - максимум температуры воздуха на высоте 2 м над землей.
R - Количество осадков - Количество выпавших осадков за период времени, мм. При наведении курсора мыши на число - период времени, за который выпало указанное количество осадков.
R24 - Количество осадков - Количество выпавших осадков за 24 часа, мм.
S - Снежный покров - Высота снежного покрова, см. При наведении курсора мыши на число - состояние снежного покрова и степень покрытия местности в баллах.